When you browse on this site, cookies collect data to enhance your experience and personalize the content and advertising you see.
Visit our Privacy Policy to learn more. By continuing to use the site, you agree to this use of cookies and data.
EN

Hourly Weather Bakhmut (Artemivsk)

Today, 12 July, Sunday

Time Temperature Precipitation Wind Pressure Humidity
00:00 +20°C° 0 mm 2 mps 751 mmHg 64%
01:00 +19°C° 0 mm 2 mps 751 mmHg 67%
02:00 +19°C° 0 mm 3 mps 751 mmHg 70%
03:00 +18°C° 0 mm 3 mps 751 mmHg 72%
04:00 +18°C° 0 mm 3 mps 750 mmHg 73%
05:00 +19°C° 0 mm 3 mps 750 mmHg 74%
06:00 +19°C° 0 mm 3 mps 750 mmHg 76%
07:00 +21°C° 0 mm 3 mps 750 mmHg 71%
08:00 +23°C° 0 mm 4 mps 749 mmHg 66%
09:00 +26°C° 0 mm 4 mps 749 mmHg 59%
10:00 +28°C° 0 mm 4 mps 749 mmHg 56%
11:00 +30°C° 0 mm 5 mps 748 mmHg 53%
12:00 +33°C° 0 mm 5 mps 748 mmHg 51%
13:00 +33°C° 0 mm 4 mps 748 mmHg 48%
14:00 +34°C° 0 mm 4 mps 747 mmHg 46%
15:00 +35°C° 0 mm 4 mps 747 mmHg 42%
16:00 +34°C° 0 mm 3 mps 746 mmHg 44%
17:00 +34°C° 0 mm 3 mps 746 mmHg 47%
18:00 +33°C° 0 mm 3 mps 745 mmHg 49%
19:00 +32°C° 0.3 mm 4 mps 745 mmHg 55%
20:00 +29°C° 0.3 mm 5 mps 745 mmHg 61%
21:00 +27°C° 0.3 mm 6 mps 745 mmHg 67%
22:00 +25°C° 0.4 mm 5 mps 745 mmHg 73%
23:00 +22°C° 0.4 mm 4 mps 745 mmHg 78%

Tomorrow, 13 July, Monday

Time Temperature Precipitation Wind Pressure Humidity
00:00 +21°C° 0.4 mm 3 mps 745 mmHg 84%
01:00 +20°C° 0.1 mm 3 mps 744 mmHg 85%
02:00 +20°C° 0.1 mm 3 mps 744 mmHg 85%
03:00 +20°C° 0.1 mm 3 mps 744 mmHg 86%
04:00 +20°C° 0 mm 2 mps 744 mmHg 85%
05:00 +20°C° 0 mm 2 mps 743 mmHg 85%
06:00 +20°C° 0 mm 2 mps 743 mmHg 84%
07:00 +23°C° 0.1 mm 2 mps 743 mmHg 78%
08:00 +24°C° 0.1 mm 2 mps 743 mmHg 73%
09:00 +26°C° 0.1 mm 2 mps 744 mmHg 67%
10:00 +28°C° 0 mm 2 mps 743 mmHg 61%
11:00 +29°C° 0 mm 2 mps 743 mmHg 55%
12:00 +31°C° 0 mm 2 mps 743 mmHg 49%
13:00 +31°C° 0.1 mm 3 mps 743 mmHg 47%
14:00 +33°C° 0.1 mm 4 mps 743 mmHg 44%
15:00 +33°C° 0.1 mm 5 mps 743 mmHg 42%
16:00 +32°C° 0.3 mm 5 mps 742 mmHg 46%
17:00 +30°C° 0.3 mm 4 mps 742 mmHg 50%
18:00 +28°C° 0.3 mm 4 mps 742 mmHg 54%
19:00 +26°C° 0.1 mm 3 mps 742 mmHg 62%
20:00 +25°C° 0.1 mm 3 mps 742 mmHg 70%
21:00 +23°C° 0.1 mm 2 mps 742 mmHg 79%
22:00 +22°C° 0 mm 1 mps 742 mmHg 81%
23:00 +22°C° 0 mm 1 mps 742 mmHg 83%

Day after tomorrow, 14 July, Tuesday

Time Temperature Precipitation Wind Pressure Humidity
00:00 +19°C° 0 mm 0 mps 741 mmHg 86%
01:00 +21°C° 0 mm 1 mps 741 mmHg 88%
02:00 +20°C° 0 mm 1 mps 741 mmHg 90%
03:00 +20°C° 0 mm 1 mps 742 mmHg 92%
04:00 +19°C° 0 mm 2 mps 742 mmHg 92%
05:00 +19°C° 0 mm 3 mps 742 mmHg 93%
06:00 +19°C° 0 mm 3 mps 742 mmHg 93%
07:00 +20°C° 0 mm 4 mps 742 mmHg 90%
08:00 +20°C° 0 mm 4 mps 742 mmHg 88%
09:00 +20°C° 0 mm 4 mps 742 mmHg 86%
10:00 +20°C° 0 mm 4 mps 743 mmHg 83%
11:00 +21°C° 0 mm 4 mps 743 mmHg 80%
12:00 +21°C° 0 mm 4 mps 743 mmHg 77%
13:00 +21°C° 0 mm 4 mps 743 mmHg 75%
14:00 +21°C° 0 mm 5 mps 743 mmHg 73%
15:00 +22°C° 0 mm 5 mps 743 mmHg 71%
16:00 +22°C° 0.1 mm 5 mps 743 mmHg 70%
17:00 +22°C° 0.1 mm 6 mps 743 mmHg 70%
18:00 +21°C° 0.1 mm 6 mps 744 mmHg 70%
19:00 +20°C° 0.1 mm 5 mps 744 mmHg 75%
20:00 +19°C° 0.1 mm 5 mps 744 mmHg 81%
21:00 +17°C° 0.1 mm 4 mps 745 mmHg 87%
22:00 +17°C° 0.1 mm 4 mps 745 mmHg 89%
23:00 +15°C° 0.1 mm 4 mps 745 mmHg 91%

15 July, Wednesday

Time Temperature Precipitation Wind Pressure Humidity
00:00 +15°C° 0.1 mm 4 mps 745 mmHg 93%
01:00 +14°C° 0 mm 4 mps 745 mmHg 93%
02:00 +14°C° 0 mm 4 mps 745 mmHg 93%
03:00 +14°C° 0 mm 5 mps 745 mmHg 93%
04:00 +14°C° 0 mm 5 mps 745 mmHg 91%
05:00 +15°C° 0 mm 6 mps 746 mmHg 90%
06:00 +15°C° 0 mm 7 mps 746 mmHg 88%
07:00 +16°C° 0 mm 7 mps 746 mmHg 85%
08:00 +17°C° 0 mm 7 mps 747 mmHg 82%
09:00 +17°C° 0 mm 7 mps 747 mmHg 79%
10:00 +20°C° 0 mm 7 mps 747 mmHg 72%
11:00 +21°C° 0 mm 7 mps 747 mmHg 65%
12:00 +23°C° 0 mm 7 mps 748 mmHg 57%
13:00 +24°C° 0.1 mm 7 mps 748 mmHg 53%
14:00 +24°C° 0.1 mm 7 mps 748 mmHg 49%
15:00 +26°C° 0.1 mm 7 mps 748 mmHg 44%
16:00 +26°C° 0 mm 6 mps 748 mmHg 45%
17:00 +25°C° 0 mm 5 mps 748 mmHg 46%
18:00 +25°C° 0 mm 5 mps 748 mmHg 47%
19:00 +22°C° 0 mm 4 mps 749 mmHg 52%
20:00 +21°C° 0 mm 3 mps 749 mmHg 57%
21:00 +19°C° 0 mm 2 mps 749 mmHg 62%
22:00 +18°C° 0 mm 2 mps 749 mmHg 66%
23:00 +18°C° 0 mm 2 mps 749 mmHg 70%

16 July, Thursday

Time Temperature Precipitation Wind Pressure Humidity
00:00 +17°C° 0 mm 2 mps 749 mmHg 74%
01:00 +16°C° 0 mm 2 mps 749 mmHg 75%
02:00 +16°C° 0 mm 2 mps 749 mmHg 77%
03:00 +16°C° 0 mm 2 mps 749 mmHg 79%
04:00 +16°C° 0 mm 2 mps 749 mmHg 79%
05:00 +16°C° 0 mm 2 mps 749 mmHg 79%
06:00 +18°C° 0 mm 1 mps 749 mmHg 79%
07:00 +18°C° 0 mm 2 mps 749 mmHg 71%
08:00 +20°C° 0 mm 2 mps 749 mmHg 63%
09:00 +23°C° 0 mm 2 mps 749 mmHg 55%
10:00 +24°C° 0 mm 2 mps 749 mmHg 51%
11:00 +25°C° 0 mm 2 mps 749 mmHg 47%
12:00 +26°C° 0 mm 3 mps 749 mmHg 43%
13:00 +27°C° 0 mm 3 mps 749 mmHg 43%
14:00 +27°C° 0 mm 3 mps 749 mmHg 43%
15:00 +27°C° 0 mm 3 mps 749 mmHg 44%
16:00 +27°C° 0 mm 3 mps 748 mmHg 45%
17:00 +27°C° 0 mm 3 mps 748 mmHg 45%
18:00 +26°C° 0 mm 3 mps 748 mmHg 46%
19:00 +25°C° 0 mm 2 mps 748 mmHg 51%
20:00 +23°C° 0 mm 2 mps 748 mmHg 55%
21:00 +21°C° 0 mm 1 mps 748 mmHg 60%
22:00 +20°C° 0 mm 1 mps 748 mmHg 61%
23:00 +20°C° 0 mm 1 mps 748 mmHg 63%

17 July, Friday

Time Temperature Precipitation Wind Pressure Humidity
00:00 +19°C° 0 mm 1 mps 748 mmHg 64%
01:00 +17°C° 0 mm 0 mps 748 mmHg 66%
02:00 +16°C° 0 mm 0 mps 748 mmHg 67%
03:00 +16°C° 0 mm 0 mps 748 mmHg 68%
04:00 +16°C° 0 mm 0 mps 748 mmHg 68%
05:00 +17°C° 0 mm 0 mps 748 mmHg 68%
06:00 +17°C° 0 mm 0 mps 748 mmHg 67%
07:00 +21°C° 0 mm 1 mps 748 mmHg 61%
08:00 +23°C° 0 mm 1 mps 748 mmHg 55%
09:00 +25°C° 0 mm 1 mps 749 mmHg 49%
10:00 +26°C° 0 mm 1 mps 749 mmHg 46%
11:00 +28°C° 0 mm 1 mps 748 mmHg 42%
12:00 +29°C° 0 mm 1 mps 748 mmHg 39%
13:00 +29°C° 0 mm 1 mps 748 mmHg 38%
14:00 +29°C° 0 mm 1 mps 748 mmHg 37%
15:00 +29°C° 0 mm 1 mps 748 mmHg 36%
16:00 +29°C° 0 mm 1 mps 748 mmHg 38%
17:00 +29°C° 0 mm 1 mps 748 mmHg 39%
18:00 +28°C° 0 mm 2 mps 748 mmHg 40%
19:00 +27°C° 0 mm 2 mps 748 mmHg 44%
20:00 +25°C° 0 mm 2 mps 748 mmHg 49%
21:00 +23°C° 0 mm 2 mps 748 mmHg 53%
22:00 +23°C° 0 mm 2 mps 748 mmHg 56%
23:00 +21°C° 0 mm 2 mps 748 mmHg 58%
Show more